Find Tianmu-1 qixiang xingzou 02

NORAD ID: 55137 Int'l Des: 2023-003 Owner: TIANMU Country: CN operational
LEOCIRCULARRETROGRADESSO

現在のビュー

3D地球を読み込み中...

Tianmu-1 qixiang xingzou 02について

説明を読み込み中...

次回通過

Passes for default location (London). Set your location on the main map for personalized predictions.

高度履歴

Loading altitude history...

軌道要素

1 55137U 23003E 26150.16001708 .00028624 00000-0 43791-3 0 9995
2 55137 97.1448 225.6205 0004595 161.2378 198.9047 15.54330237189468
Epoch: May 30, 2026 • Age: 13 hours

現在のステータス

高度 431.1 km
速度 7.65 km/s
衛星直下点 -72.64°S, 124.91°W
打ち上げ日 Jan 9, 2023
運用期間 3.3 years
タイプ other

技術仕様

分類 Payload
質量 50.00 kg
乾燥質量 50.00 kg
総質量 50.00 kg
長さ 1.50 m
直径 1.00 m
スパン 1.50 m
形状 Box
製造者 TIANMU
バスタイプ Tianmu
フェーズステータス In Orbit
所有者/国 TIANMU/CN

Most Searched